Flag for Germany Weather past 2 weeks in Laatzen, Lower Saxony, Germany

Now
47 °F

Overcast.


Feels Like: 43 °F
Forecast: 38 / 43 °F
Wind: 8 mph from West

Location: Hannover

Current Time: Dec 19, 2014 at 4:28:53 PM

Latest Report: Dec 19, 2014 at 3:00 PM


Visibility: 22 mi

Pressure: 29.76 "Hg

Humidity: 87%

Dew point: 44 °F

Location of LaatzenLocation

Historic Weather in Laatzen — Graph

°F

Laatzen temperature yesterday

Maximum temperature yesterday: 54 °F (at 8:00 PM)
Minimum temperature yesterday: 47 °F (at 12:00 AM)
Average temperature yesterday: 51 °F

Past Weeks' High & Low Weather Summary

 TemperatureHumidityPressure
High54 °F (Dec 18, 8:00 PM)100% (Dec 7, 6:00 AM)30.37 "Hg (Dec 7, 6:00 AM)
Low32 °F (Dec 7, 6:00 AM)62% (Dec 7, 5:00 PM)29.32 "Hg (Dec 12, 2:00 PM)
Average41 °F86%29.91 "Hg
* Reported Dec 4 3:00 PM — Dec 19 3:00 PM, Laatzen, Weather by CustomWeather, © 2014

Note: Actual official high and low records may vary slightly from our data, if they occured in-between our weather recording intervals... More about our weather records

Advertising

Laatzen weather history for previous 24 hours

 ConditionsComfort  
Time TempWeatherWind HumidityBarometerVisibility
3:00 PM
Dec 19
47 °FOvercast.8 mph87%29.76 "Hg22 mi
2:00 PM48 °FOvercast.9 mph91%29.73 "Hg12 mi
1:00 PM49 °FLight rain. Overcast.6 mph92%29.72 "Hg6 mi
12:00 PM52 °FLight rain. Overcast.12 mph89%29.71 "Hg6 mi
11:00 AM52 °FRain. Overcast.10 mph90%29.70 "Hg6 mi
9:00 AM52 °FLight rain. Low clouds.8 mph90%29.70 "Hg6 mi
8:00 AM52 °FLight rain. Low clouds.8 mph94%29.71 "Hg3 mi
7:00 AM53 °FLight rain. Overcast.8 mph90%29.72 "Hg4 mi
6:00 AM53 °FLight rain. Low clouds.9 mph90%29.73 "Hg2 mi
5:00 AM53 °FLow clouds.8 mph91%29.74 "Hg2 mi
3:00 AM53 °FLight rain. Low clouds.9 mph94%29.76 "Hg2 mi
2:00 AM53 °FLight rain. Low clouds.9 mph94%29.76 "Hg2 mi
1:00 AM53 °FLight rain. Low clouds.9 mph94%29.75 "Hg3 mi
12:00 AM53 °FLight rain. Low clouds.9 mph94%29.75 "Hg2 mi
11:00 PM
Dec 18
53 °FLight rain. Low clouds.9 mph92%29.75 "Hg4 mi
9:00 PM54 °FLight rain. Overcast.8 mph94%29.74 "Hg4 mi
8:00 PM54 °FLight rain. Overcast.9 mph90%29.73 "Hg5 mi
7:00 PM53 °FLight rain. Low clouds.9 mph95%29.72 "Hg3 mi
6:00 PM53 °FOvercast.8 mph92%29.71 "Hg5 mi
5:00 PM53 °FLow clouds.8 mph89%29.71 "Hg9 mi
Weather by CustomWeather, © 2014

See weather overviewHow to use our weather pages